Zurück zum Katalog

COSMOS 1275 DEB

LostPO
NORAD 39950·DEBRIS·🇷🇺 Russia

Gestartet Jun 4, 1981 von Plesetsk Cosmodrome

Loading…

Nächste Überflüge (nächste 24 Stunden)

TLE

VeraltetSource: Space-Track

Epoche: Sep 22, 2024, 04:28 UTC

1 39950U 81053NL  24266.18664369  .00003245  00000-0  30095-2 0  9999
2 39950  83.1741 210.9471 0100784 286.7776  72.2345 13.79750570997911

Verfolge COSMOS 1275 DEB in Echtzeit mit AllMySat

Download on the App Store